Flag for Canada Weather past 2 weeks in Stephenville, Newfoundland and Labrador, Canada

Now
25 °F

Mostly cloudy.


Feels Like: 15 °F
Forecast: 18 / 30 °F
Wind: 9 mph from East

Location: Stephenville

Current Time: Dec 22, 2014 at 7:30:43 AM

Latest Report: Dec 22, 2014 at 6:30 AM


Visibility: 15 mi

Pressure: 30.42 "Hg

Humidity: 80%

Dew point: 19 °F

Location of StephenvilleLocation

Historic Weather in Stephenville — Graph

°F

Stephenville temperature yesterday

Maximum temperature yesterday: 28 °F (at 10:30 AM)
Minimum temperature yesterday: 25 °F (at 8:30 PM)
Average temperature yesterday: 26 °F

Past Weeks' High & Low Weather Summary

 TemperatureHumidityPressure
High55 °F (Dec 12, 1:30 PM)100% (Dec 7, 8:30 AM)30.80 "Hg (Dec 7, 8:30 AM)
Low10 °F (Dec 8, 12:30 AM)55% (Dec 9, 1:30 PM)29.33 "Hg (Dec 19, 7:30 AM)
Average33 °F81%30.06 "Hg
* Reported Dec 7 6:30 AM — Dec 22 6:30 AM, Stephenville, Weather by CustomWeather, © 2014

Note: Actual official high and low records may vary slightly from our data, if they occured in-between our weather recording intervals... More about our weather records

Advertising

Stephenville weather history for previous 24 hours

 ConditionsComfort  
Time TempWeatherWind HumidityBarometerVisibility
6:30 AM
Dec 22
25 °FMostly cloudy.9 mph80%30.42 "Hg15 mi
5:30 AM27 °FOvercast.8 mph74%30.42 "Hg15 mi
4:30 AM27 °FPassing clouds.8 mph80%30.42 "Hg15 mi
3:30 AM27 °FPassing clouds.No wind80%30.41 "Hg15 mi
2:30 AM27 °FOvercast.3 mph80%30.40 "Hg15 mi
1:30 AM27 °FOvercast.No wind80%30.39 "Hg15 mi
12:30 AM27 °FPassing clouds.No wind80%30.39 "Hg15 mi
11:30 PM
Dec 21
25 °FOvercast.6 mph80%30.40 "Hg15 mi
10:30 PM25 °FOvercast.6 mph80%30.40 "Hg15 mi
9:30 PM25 °FOvercast.7 mph80%30.39 "Hg15 mi
8:30 PM25 °FOvercast.7 mph80%30.39 "Hg15 mi
7:30 PM27 °FOvercast.9 mph80%30.38 "Hg15 mi
6:30 PM27 °FOvercast.6 mph80%30.37 "Hg15 mi
5:30 PM27 °FOvercast.5 mph80%30.36 "Hg15 mi
4:30 PM27 °FOvercast.5 mph80%30.35 "Hg15 mi
3:30 PM27 °FOvercast.7 mph80%30.35 "Hg15 mi
2:30 PM27 °FOvercast.7 mph80%30.34 "Hg15 mi
1:30 PM27 °FOvercast.9 mph74%30.35 "Hg15 mi
12:30 PM27 °FOvercast.9 mph74%30.35 "Hg15 mi
11:30 AM27 °FOvercast.7 mph74%30.36 "Hg15 mi
10:30 AM28 °FOvercast.7 mph69%30.37 "Hg15 mi
9:30 AM27 °FOvercast.2 mph74%30.36 "Hg15 mi
8:30 AM27 °FOvercast.3 mph80%30.35 "Hg15 mi
7:30 AM27 °FOvercast.7 mph74%30.34 "Hg15 mi
Weather by CustomWeather, © 2014

See weather overviewHow to use our weather pages